Location: ??
(35.5090°N, 139.6783°E)
Time: 02:58:00
(UTC+00:00)

Cosmos 2233 Rocket - Pass Details

Date: 08 November 2025
Orbit: 952 x 989 km, 82.9° (Epoch: 09 December)

Event Time Altitude Azimuth Distance (km) Brightness Sun altitude
Rises 08:07:48 0° 164° (SSE) 3,653 7.0 -6.2°
Reaches altitude 10° 08:10:26 10° 158° (SSE) 2,715 6.3 -6.7°
Maximum altitude 08:16:12 42° 89° (E) 1,377 4.4 -7.9°
Drops below altitude 10° 08:22:03 10° 21° (NNE) 2,750 6.0 -9.0°
Sets 08:24:43 0° 15° (NNE) 3,705 6.7 -9.5°
